Weather Service Report


416 
ASUS41 KALY 251010
RWRALY

NEW YORK STATE HOURLY WEATHER ROUNDUP
NATIONAL WEATHER SERVICE ALBANY NY
500 AM EST SUN JAN 25 2015

NOTE: "FAIR" INDICATES FEW OR NO CLOUDS BELOW 12,000 FEET WITH NO
SIGNIFICANT WEATHER AND/OR NO OBSTRUCTIONS TO VISIBILITY.

NYZ032-033-038>043-046>054-057>066-NYZ062>081-251100-
EAST

  
CITY           SKY/WX    TMP DP  RH WIND       PRES   REMARKS
ALBANY         FLURRIES  34  27  75 S6        29.49R WCI  29          
GLENS FALLS    FLURRIES  32  27  81 S8        29.42R WCI  25          
POUGHKEEPSIE   PTCLDY    34  25  69 SW12      29.54R WCI  25          
NEWBURGH       CLOUDY    32  27  80 NW12      29.57R WCI  23          
MONTGOMERY     MOCLDY    34  25  69 SW7       29.54R WCI  28          
WHITE PLAINS   PTCLDY    33  24  69 W9G17     29.55R WCI  25          
ISLIP          CLEAR     33  25  72 W9        29.56R WCI  25          
NEW YORK CITY  PTCLDY    35  25  66 W16G22    29.60R WCI  25          
CENTRAL PARK   CLEAR     34  24  67 VRB6      29.62R WCI  29          
$$

NYZ005>009-017-018-044>046-055-056-251100-
CENTRAL

  
CITY           SKY/WX    TMP DP  RH WIND       PRES   REMARKS
FULTON         MOCLDY    28  18  66 NW24G32   29.61R WCI  14          
SYRACUSE       FLURRIES  28  21  75 W18G35    29.59R WCI  15          
ROME           FLURRIES  30  23  75 W21G32    29.55R WCI  17          
ELMIRA         MOCLDY    34  22  61 W13G36    29.60R WCI  25          
BINGHAMTON     FLURRIES  29  26  89 W14G25    29.52R WCI  18          
MONTICELLO     CLOUDY    28  25  86 W9        29.51R WCI  20          
$$

NYZ026>034-041>043-251100-
NORTH

  
CITY           SKY/WX    TMP DP  RH WIND       PRES   REMARKS
WATERTOWN      CLOUDY    21  13  71 N15       29.63R WCI   8          
FORT DRUM      NOT AVBL                                               
MASSENA        MIX PCPN  15   7  70 NW20G29   29.59R WCI  -2          
SARANAC LAKE   LGT SNOW  18  14  84 NW13G21   29.39R VSB 1   WCI   5  
PLATTSBURGH    CLOUDY    28  18  66 NW21G29   29.43R WCI  15          
$$

NYZ001>004-010>016-019>021-251100-
WEST

  
CITY           SKY/WX    TMP DP  RH WIND       PRES   REMARKS
NIAGARA FALLS  PTCLDY    23  16  74 NW16      29.72R WCI  10          
BUFFALO        MOCLDY    26  18  71 NW16      29.71R WCI  14          
DUNKIRK        CLOUDY    29  22  75 NW13      29.73R WCI  19          
JAMESTOWN      CLOUDY    25  19  80 NW9       29.67R WCI  15          
WELLSVILLE     CLOUDY    27  18  69 NW21G30   29.60R WCI  13          
ROCHESTER      PTCLDY    26  16  65 NW20G30   29.67R WCI  12          
PENN YAN       MOCLDY    31  18  58 W12G23    29.61R WCI  22          
$$

             KEY
       WCI = WIND CHILL INDEX
       VSB = VISIBILITY
       HX  = HEAT INDEX
$$

Return to Home page


Western Regional Climate Center, wrcc@dri.edu